User: anonymous   Login
Location: Theydon Bois
(51.6750°N, 0.1050°E)
Time: 14:15:45
(UTC+00:00)
Language:

RESURS DK-1 - Orbit

View from above orbital plane
View from above orbital plane
View from above satellite
View from above satellite

Ground track
Ground track

The orbit data is extracted from the following two-line orbital elements,

1 29228U 06021A   17345.89680214 +.00000124 +00000-0 +16720-4 0  9997
2 29228 069.9356 005.9160 0001997 033.0674 327.0611 15.02259095634789
Epoch (UTC): 11 December 2017 21:31:23
Eccentricity: 0.0001997
inclination: 69.9356°
perigee height: 558 km
apogee height: 561 km
right ascension of ascending node: 5.9160°
argument of perigee: 33.0674°
revolutions per day: 15.02259095
mean anomaly at epoch: 327.0611°
orbit number at epoch: 63478

The dashed part of the orbit path shows where the satellite is in the earth's shadow,  

DLR